| time (UTC) | temp F | wind direction | speed knots | gust knots | rain 1hr in | rain 24hr in | rain mn in | humidity % | barometer mb |
| 20260510192554 | 80 | 129 | 5.2 | 11.3 | 0.00 | 0.03 | 0.00 | 83 | 1013.8 |
| 20260510192054 | 81 | 125 | 7.0 | 11.3 | 0.00 | 0.03 | 0.00 | 80 | 1013.8 |
| 20260510191554 | 81 | 139 | 5.2 | 10.4 | 0.00 | 0.03 | 0.00 | 80 | 1013.8 |
| 20260510191054 | 81 | 150 | 6.1 | 10.4 | 0.00 | 0.03 | 0.00 | 80 | 1013.8 |
| 20260510190555 | 81 | 159 | 3.5 | 8.7 | 0.00 | 0.03 | 0.00 | 83 | 1013.8 |
| 20260510190100 | 80 | 133 | 1.7 | 9.6 | 0.00 | 0.03 | 0.00 | 86 | 1013.8 |
| 20260510185552 | 80 | 127 | 4.3 | 8.7 | 0.00 | 0.17 | 0.00 | 84 | 1014.0 |
| 20260510185051 | 80 | 96 | 5.2 | 8.7 | 0.00 | 0.17 | 0.00 | 85 | 1014.0 |
| 20260510184615 | 79 | 136 | 5.2 | 9.6 | 0.00 | 0.17 | 0.00 | 86 | 1014.0 |
| 20260510184051 | 79 | 118 | 3.5 | 9.6 | 0.00 | 0.17 | 0.00 | 85 | 1014.3 |
| 20260510183554 | 79 | 118 | 4.3 | 9.6 | 0.00 | 0.17 | 0.00 | 85 | 1014.3 |
| 20260510183051 | 79 | 120 | 3.5 | 9.6 | 0.00 | 0.17 | 0.00 | 85 | 1014.3 |
| 20260510182554 | 79 | 113 | 5.2 | 11.3 | 0.00 | 0.17 | 0.00 | 85 | 1014.3 |
| 20260510182051 | 79 | 100 | 6.1 | 11.3 | 0.00 | 0.17 | 0.00 | 86 | 1014.3 |
| 20260510181559 | 79 | 92 | 7.0 | 11.3 | 0.00 | 0.17 | 0.00 | 86 | 1014.3 |
| 20260510181050 | 79 | 94 | 5.2 | 11.3 | 0.00 | 0.17 | 0.00 | 85 | 1014.3 |
| 20260510180550 | 80 | 106 | 7.0 | 11.3 | 0.00 | 0.17 | 0.00 | 86 | 1014.3 |
| 20260510180108 | 80 | 101 | 4.3 | 11.3 | 0.00 | 0.17 | 0.00 | 87 | 1014.3 |
| 20260510175550 | 80 | 118 | 4.3 | 11.3 | 0.00 | 0.26 | 0.00 | 87 | 1014.4 |
| 20260510175050 | 80 | 103 | 2.6 | 7.8 | 0.00 | 0.26 | 0.00 | 87 | 1014.4 |
| 20260510174550 | 80 | 132 | 2.6 | 7.8 | 0.00 | 0.26 | 0.00 | 87 | 1014.4 |
| 20260510174050 | 80 | 115 | 3.5 | 8.7 | 0.00 | 0.26 | 0.00 | 87 | 1014.6 |
| 20260510173549 | 80 | 89 | 3.5 | 8.7 | 0.00 | 0.26 | 0.00 | 86 | 1014.6 |
| 20260510173049 | 80 | 95 | 4.3 | 8.7 | 0.00 | 0.26 | 0.00 | 86 | 1014.6 |
| 20260510172551 | 80 | 118 | 3.5 | 8.7 | 0.00 | 0.26 | 0.00 | 88 | 1014.8 |
| 20260510172047 | 80 | 103 | 4.3 | 7.8 | 0.00 | 0.26 | 0.00 | 87 | 1014.8 |
| 20260510171601 | 79 | 86 | 2.6 | 7.8 | 0.00 | 0.26 | 0.00 | 89 | 1014.8 |
| 20260510171050 | 79 | 119 | 3.5 | 7.8 | 0.00 | 0.26 | 0.00 | 87 | 1015.1 |
| 20260510170550 | 79 | 111 | 0.9 | 6.1 | 0.00 | 0.26 | 0.00 | 87 | 1015.1 |
| 20260510170046 | 79 | 115 | 1.7 | 7.8 | 0.00 | 0.26 | 0.00 | 89 | 1015.1 |
| 20260510165545 | 79 | 106 | 2.6 | 7.8 | 0.00 | 0.91 | 0.00 | 89 | 1015.0 |
| 20260510165043 | 79 | 138 | 3.5 | 7.0 | 0.00 | 0.91 | 0.00 | 87 | 1015.0 |
| 20260510164543 | 78 | 97 | 4.3 | 7.8 | 0.00 | 0.91 | 0.00 | 88 | 1015.0 |
| 20260510164041 | 78 | 138 | 3.5 | 6.1 | 0.00 | 0.91 | 0.00 | 90 | 1015.0 |
| 20260510163540 | 78 | 132 | 4.3 | 7.0 | 0.00 | 0.91 | 0.00 | 91 | 1015.0 |
| 20260510163040 | 77 | 105 | 1.7 | 7.0 | 0.00 | 0.91 | 0.00 | 93 | 1015.0 |
| 20260510162539 | 77 | 111 | 4.3 | 7.0 | 0.00 | 0.91 | 0.00 | 92 | 1015.0 |
| 20260510162037 | 76 | 101 | 1.7 | 6.1 | 0.00 | 0.91 | 0.00 | 93 | 1015.0 |
| 20260510161536 | 76 | 105 | 1.7 | 5.2 | 0.00 | 0.91 | 0.00 | 93 | 1015.0 |
| 20260510161038 | 76 | 101 | 0.9 | 6.1 | 0.00 | 0.91 | 0.00 | 93 | 1015.1 |
| 20260510160535 | 76 | 98 | 2.6 | 6.1 | 0.00 | 0.91 | 0.00 | 94 | 1015.1 |
| 20260510160042 | 75 | 108 | 0.9 | 6.1 | 0.00 | 0.91 | 0.00 | 95 | 1015.1 |
| 20260510155535 | 75 | 113 | 1.7 | 7.0 | 0.00 | 1.07 | 0.00 | 95 | 1015.3 |
| 20260510155033 | 75 | 103 | 2.6 | 7.0 | 0.00 | 1.07 | 0.00 | 94 | 1015.3 |
| 20260510154550 | 75 | 113 | 1.7 | 6.1 | 0.00 | 1.07 | 0.00 | 94 | 1015.3 |
| 20260510154032 | 75 | 110 | 2.6 | 6.1 | 0.00 | 1.07 | 0.00 | 94 | 1015.2 |
| 20260510153532 | 75 | 98 | 0.9 | 7.8 | 0.00 | 1.07 | 0.00 | 94 | 1015.2 |
| 20260510153045 | 75 | 98 | 4.3 | 7.8 | 0.00 | 1.07 | 0.00 | 93 | 1015.2 |
| 20260510152532 | 75 | 117 | 2.6 | 7.0 | 0.00 | 1.07 | 0.00 | 93 | 1015.2 |
| 20260510152031 | 75 | 101 | 0.9 | 8.7 | 0.00 | 1.07 | 0.00 | 93 | 1015.2 |
| 20260510151531 | 75 | 25 | 1.7 | 8.7 | 0.00 | 1.07 | 0.00 | 94 | 1015.2 |
| 20260510151031 | 75 | 96 | 2.6 | 8.7 | 0.00 | 1.07 | 0.00 | 94 | 1015.2 |
| 20260510150531 | 75 | 116 | 4.3 | 9.6 | 0.00 | 1.07 | 0.00 | 95 | 1015.2 |
| 20260510150032 | 74 | 99 | 4.3 | 8.7 | 0.00 | 1.07 | 0.00 | 95 | 1015.2 |
| 20260510145527 | 74 | 97 | 0.0 | 7.8 | 0.00 | 1.39 | 0.00 | 95 | 1015.3 |
| 20260510145027 | 74 | 75 | 0.0 | 6.1 | 0.00 | 1.39 | 0.00 | 96 | 1015.3 |
| 20260510144544 | 73 | 65 | 0.9 | 7.0 | 0.00 | 1.39 | 0.00 | 96 | 1015.3 |
| 20260510144026 | 73 | 98 | 0.0 | 7.0 | 0.00 | 1.39 | 0.00 | 96 | 1015.3 |
| 20260510143528 | 73 | 91 | 0.9 | 7.8 | 0.00 | 1.39 | 0.00 | 97 | 1015.3 |
| 20260510143024 | 73 | 102 | 2.6 | 7.8 | 0.00 | 1.39 | 0.00 | 97 | 1015.3 |
| 20260510142527 | 72 | 81 | 0.0 | 7.8 | 0.00 | 1.39 | 0.00 | 98 | 1015.0 |
| 20260510142022 | 72 | 108 | 0.9 | 7.8 | 0.00 | 1.39 | 0.00 | 99 | 1015.0 |
| 20260510141521 | 72 | 121 | 0.9 | 8.7 | 0.00 | 1.39 | 0.00 | 100 | 1015.0 |
| 20260510141020 | 71 | 83 | 0.9 | 7.0 | 0.00 | 1.39 | 0.00 | 100 | 1014.9 |
| 20260510140519 | 71 | 101 | 0.9 | 6.1 | 0.00 | 1.39 | 0.00 | 100 | 1014.9 |
| 20260510140019 | 71 | 96 | 0.9 | 5.2 | 0.00 | 1.39 | 0.00 | 100 | 1014.9 |
| 20260510135517 | 71 | 112 | 0.0 | 7.8 | 0.00 | 1.40 | 0.00 | 100 | 1014.8 |
| 20260510135016 | 70 | 113 | 0.0 | 8.7 | 0.00 | 1.40 | 0.00 | 100 | 1014.8 |
| 20260510134516 | 70 | 102 | 3.5 | 8.7 | 0.00 | 1.40 | 0.00 | 100 | 1014.8 |
| 20260510134019 | 70 | 94 | 4.3 | 7.8 | 0.00 | 1.40 | 0.00 | 100 | 1014.8 |
| 20260510133514 | 70 | 98 | 0.9 | 7.8 | 0.00 | 1.40 | 0.00 | 100 | 1014.8 |
| 20260510133014 | 69 | 88 | 0.9 | 7.8 | 0.00 | 1.40 | 0.00 | 100 | 1014.8 |
| 20260510132514 | 69 | 105 | 1.7 | 4.3 | 0.00 | 1.40 | 0.00 | 100 | 1014.5 |
| 20260510132013 | 69 | 90 | 0.0 | 4.3 | 0.00 | 1.40 | 0.00 | 100 | 1014.5 |
| 20260510131511 | 69 | 87 | 0.0 | 3.5 | 0.00 | 1.40 | 0.00 | 100 | 1014.5 |
| 20260510131013 | 69 | 88 | 0.0 | 3.5 | 0.00 | 1.40 | 0.00 | 100 | 1014.3 |
| 20260510130511 | 69 | 78 | 0.0 | 0.9 | 0.00 | 1.40 | 0.00 | 100 | 1014.3 |
| 20260510130011 | 69 | 78 | 0.0 | 1.7 | 0.00 | 1.40 | 0.00 | 100 | 1014.3 |
| 20260510125510 | 69 | 77 | 0.0 | 1.7 | 0.00 | 1.40 | 0.00 | 100 | 1013.9 |
| 20260510125010 | 68 | 78 | 0.0 | 1.7 | 0.00 | 1.40 | 0.00 | 100 | 1013.9 |
| 20260510124513 | 68 | 78 | 0.0 | 2.6 | 0.00 | 1.40 | 0.00 | 100 | 1013.9 |
| 20260510124010 | 68 | 79 | 0.0 | 2.6 | 0.00 | 1.40 | 0.00 | 100 | 1013.6 |
| 20260510123510 | 68 | 74 | 0.0 | 0.9 | 0.00 | 1.40 | 0.00 | 100 | 1013.6 |
| 20260510123007 | 68 | 74 | 0.0 | 1.7 | 0.00 | 1.40 | 0.00 | 100 | 1013.6 |
| 20260510122506 | 67 | 74 | 0.0 | 2.6 | 0.00 | 1.40 | 0.00 | 100 | 1013.4 |
| 20260510122006 | 67 | 76 | 0.0 | 2.6 | 0.00 | 1.40 | 0.00 | 100 | 1013.4 |
| 20260510121506 | 67 | 76 | 0.0 | 0.9 | 0.00 | 1.40 | 0.00 | 100 | 1013.4 |
| 20260510121006 | 67 | 76 | 0.0 | 0.9 | 0.00 | 1.40 | 0.00 | 100 | 1013.3 |
| 20260510120506 | 66 | 76 | 0.0 | 0.0 | 0.00 | 1.40 | 0.00 | 100 | 1013.3 |
| 20260510120012 | 66 | 76 | 0.0 | 0.9 | 0.00 | 1.40 | 0.00 | 100 | 1013.3 |
| 20260510115506 | 66 | 76 | 0.0 | 0.9 | 0.00 | 1.40 | 0.00 | 100 | 1013.1 |
| 20260510115005 | 66 | 77 | 0.0 | 1.7 | 0.00 | 1.40 | 0.00 | 100 | 1013.1 |
| 20260510114505 | 66 | 77 | 0.0 | 1.7 | 0.00 | 1.40 | 0.00 | 100 | 1013.1 |
| 20260510114005 | 66 | 42 | 0.0 | 0.0 | 0.00 | 1.40 | 0.00 | 100 | 1012.8 |
| 20260510113504 | 66 | 42 | 0.0 | 0.0 | 0.00 | 1.40 | 0.00 | 100 | 1012.8 |
| 20260510113004 | 66 | 42 | 0.0 | 0.0 | 0.00 | 1.40 | 0.00 | 100 | 1012.8 |
| 20260510112503 | 66 | 42 | 0.0 | 0.0 | 0.00 | 1.40 | 0.00 | 100 | 1012.7 |
| 20260510112002 | 65 | 42 | 0.0 | 0.0 | 0.00 | 1.40 | 0.00 | 100 | 1012.7 |
| 20260510111501 | 65 | 42 | 0.0 | 0.0 | 0.00 | 1.40 | 0.00 | 100 | 1012.7 |
| 20260510111003 | 65 | 42 | 0.0 | 0.0 | 0.00 | 1.40 | 0.00 | 100 | 1012.2 |
| 20260510110501 | 65 | 42 | 0.0 | 0.0 | 0.00 | 1.40 | 0.00 | 100 | 1012.2 |
| 20260510110003 | 65 | 42 | 0.0 | 0.0 | 0.00 | 1.40 | 0.00 | 100 | 1012.2 |
| 20260510105501 | 65 | 42 | 0.0 | 0.0 | 0.00 | 1.40 | 0.00 | 100 | 1012.1 |
| 20260510105001 | 65 | 42 | 0.0 | 0.0 | 0.00 | 1.40 | 0.00 | 100 | 1012.1 |
| 20260510104500 | 65 | 42 | 0.0 | 0.0 | 0.00 | 1.40 | 0.00 | 100 | 1012.1 |
| 20260510104100 | 65 | 42 | 0.0 | 0.0 | 0.00 | 1.40 | 0.00 | 100 | 1011.7 |
| 20260510103600 | 65 | 42 | 0.0 | 0.0 | 0.00 | 1.40 | 0.00 | 100 | 1011.7 |
| 20260510103101 | 66 | 42 | 0.0 | 0.0 | 0.00 | 1.40 | 0.00 | 100 | 1011.7 |
| 20260510102600 | 66 | 42 | 0.0 | 0.0 | 0.00 | 1.40 | 0.00 | 100 | 1011.7 |
| 20260510102100 | 65 | 42 | 0.0 | 0.0 | 0.00 | 1.40 | 0.00 | 100 | 1011.7 |
| 20260510101604 | 65 | 42 | 0.0 | 0.0 | 0.00 | 1.40 | 0.00 | 100 | 1011.7 |
| 20260510101059 | 65 | 42 | 0.0 | 0.0 | 0.00 | 1.40 | 0.00 | 100 | 1011.6 |
| 20260510100559 | 65 | 42 | 0.0 | 0.0 | 0.00 | 1.40 | 0.00 | 100 | 1011.6 |
| 20260510100059 | 65 | 42 | 0.0 | 0.0 | 0.00 | 1.40 | 0.00 | 100 | 1011.6 |
| 20260510095559 | 65 | 42 | 0.0 | 0.0 | 0.00 | 1.40 | 0.00 | 100 | 1011.7 |
| 20260510095059 | 65 | 42 | 0.0 | 0.0 | 0.00 | 1.40 | 0.00 | 100 | 1011.7 |
| 20260510094614 | 65 | 42 | 0.0 | 0.0 | 0.00 | 1.40 | 0.00 | 100 | 1011.7 |
| 20260510094059 | 65 | 42 | 0.0 | 0.0 | 0.00 | 1.40 | 0.00 | 100 | 1011.7 |
| 20260510093558 | 65 | 42 | 0.0 | 0.0 | 0.00 | 1.40 | 0.00 | 100 | 1011.7 |
| 20260510093058 | 65 | 42 | 0.0 | 0.0 | 0.00 | 1.40 | 0.00 | 100 | 1011.7 |
| 20260510092559 | 65 | 42 | 0.0 | 0.0 | 0.00 | 1.40 | 0.00 | 100 | 1011.5 |
| 20260510092056 | 65 | 42 | 0.0 | 0.0 | 0.00 | 1.40 | 0.00 | 100 | 1011.5 |
| 20260510091557 | 65 | 42 | 0.0 | 0.0 | 0.00 | 1.40 | 0.00 | 100 | 1011.5 |
| 20260510091056 | 65 | 42 | 0.0 | 0.0 | 0.00 | 1.40 | 0.00 | 100 | 1011.6 |
| 20260510090556 | 65 | 42 | 0.0 | 0.0 | 0.00 | 1.40 | 0.00 | 100 | 1011.6 |
| 20260510090056 | 65 | 42 | 0.0 | 0.0 | 0.00 | 1.40 | 0.00 | 100 | 1011.6 |
| 20260510085555 | 65 | 42 | 0.0 | 0.0 | 0.00 | 1.40 | 0.00 | 100 | 1011.6 |
| 20260510085056 | 65 | 42 | 0.0 | 0.0 | 0.00 | 1.40 | 0.00 | 100 | 1011.6 |
| 20260510084602 | 65 | 42 | 0.0 | 0.0 | 0.00 | 1.40 | 0.00 | 100 | 1011.6 |
| 20260510084056 | 65 | 42 | 0.0 | 0.0 | 0.00 | 1.40 | 0.00 | 100 | 1011.3 |
| 20260510083556 | 65 | 42 | 0.0 | 0.0 | 0.00 | 1.40 | 0.00 | 99 | 1011.3 |
| 20260510083114 | 65 | 42 | 0.0 | 0.0 | 0.00 | 1.40 | 0.00 | 99 | 1011.3 |
| 20260510082554 | 65 | 42 | 0.0 | 0.0 | 0.00 | 1.40 | 0.00 | 99 | 1011.3 |
| 20260510082053 | 66 | 42 | 0.0 | 0.0 | 0.00 | 1.40 | 0.00 | 99 | 1011.3 |
| 20260510081612 | 66 | 42 | 0.0 | 0.0 | 0.00 | 1.40 | 0.00 | 100 | 1011.3 |
| 20260510081053 | 66 | 42 | 0.0 | 0.0 | 0.00 | 1.40 | 0.00 | 99 | 1011.1 |
| 20260510080552 | 66 | 42 | 0.0 | 0.0 | 0.00 | 1.40 | 0.00 | 99 | 1011.1 |
| 20260510080052 | 66 | 42 | 0.0 | 0.0 | 0.00 | 1.40 | 0.00 | 99 | 1011.1 |
| 20260510075552 | 66 | 42 | 0.0 | 0.0 | 0.00 | 1.40 | 0.00 | 99 | 1011.0 |
| 20260510075054 | 66 | 42 | 0.0 | 0.0 | 0.00 | 1.40 | 0.00 | 99 | 1011.0 |
| 20260510074553 | 66 | 42 | 0.0 | 0.0 | 0.00 | 1.40 | 0.00 | 99 | 1011.0 |
| 20260510074053 | 66 | 42 | 0.0 | 0.0 | 0.00 | 1.40 | 0.00 | 99 | 1011.1 |
| 20260510073550 | 66 | 42 | 0.0 | 0.0 | 0.00 | 1.40 | 0.00 | 99 | 1011.1 |
| 20260510073051 | 66 | 42 | 0.0 | 0.0 | 0.00 | 1.40 | 0.00 | 99 | 1011.1 |
| 20260510072549 | 66 | 42 | 0.0 | 0.0 | 0.00 | 1.40 | 0.00 | 99 | 1011.0 |
| 20260510072049 | 67 | 42 | 0.0 | 0.0 | 0.00 | 1.40 | 0.00 | 99 | 1011.0 |
| 20260510071549 | 67 | 42 | 0.0 | 0.0 | 0.00 | 1.40 | 0.00 | 99 | 1011.0 |
| 20260510071048 | 67 | 42 | 0.0 | 0.0 | 0.00 | 1.40 | 0.00 | 99 | 1010.7 |
| 20260510070548 | 67 | 42 | 0.0 | 0.0 | 0.00 | 1.40 | 0.00 | 99 | 1010.7 |
| 20260510070048 | 67 | 42 | 0.0 | 0.0 | 0.00 | 1.40 | 0.00 | 99 | 1010.7 |
| 20260510065550 | 67 | 42 | 0.0 | 0.0 | 0.00 | 1.40 | 0.00 | 98 | 1010.7 |
| 20260510065046 | 67 | 42 | 0.0 | 0.0 | 0.00 | 1.40 | 0.00 | 98 | 1010.7 |
| 20260510064548 | 68 | 42 | 0.0 | 0.0 | 0.00 | 1.40 | 0.00 | 98 | 1010.7 |
| 20260510064045 | 68 | 42 | 0.0 | 0.0 | 0.00 | 1.40 | 0.00 | 98 | 1010.9 |
| 20260510063544 | 68 | 42 | 0.0 | 0.9 | 0.00 | 1.40 | 0.00 | 99 | 1010.9 |
| 20260510063046 | 68 | 42 | 0.0 | 3.5 | 0.00 | 1.40 | 0.00 | 99 | 1010.9 |
| 20260510062547 | 68 | 55 | 0.0 | 11.3 | 0.00 | 1.40 | 0.00 | 99 | 1010.8 |
| 20260510062045 | 68 | 171 | 2.6 | 11.3 | 0.00 | 1.40 | 0.00 | 100 | 1010.8 |
| 20260510061554 | 68 | 72 | 4.3 | 9.6 | 0.00 | 1.40 | 0.00 | 100 | 1010.8 |
| 20260510061044 | 68 | 49 | 2.6 | 6.1 | 0.00 | 1.40 | 0.00 | 100 | 1010.1 |
| 20260510060543 | 68 | 169 | 0.0 | 4.3 | 0.00 | 1.40 | 0.00 | 100 | 1010.1 |
| 20260510060046 | 68 | 166 | 0.0 | 2.6 | 0.00 | 1.40 | 0.00 | 100 | 1010.1 |
| 20260510055542 | 68 | 166 | 0.0 | 2.6 | 0.00 | 1.40 | 0.00 | 100 | 1010.3 |
| 20260510055042 | 68 | 166 | 0.0 | 2.6 | 0.00 | 1.40 | 0.00 | 100 | 1010.3 |
| 20260510054542 | 68 | 165 | 0.0 | 2.6 | 0.00 | 1.40 | 0.00 | 100 | 1010.3 |
| 20260510054042 | 68 | 165 | 0.0 | 2.6 | 0.00 | 1.40 | 0.00 | 100 | 1010.5 |
| 20260510053541 | 68 | 165 | 0.0 | 1.7 | 0.00 | 1.40 | 0.00 | 100 | 1010.5 |
| 20260510053046 | 68 | 165 | 0.0 | 2.6 | 0.00 | 1.40 | 0.00 | 100 | 1010.5 |
| 20260510052540 | 68 | 167 | 0.0 | 3.5 | 0.00 | 1.40 | 0.00 | 100 | 1010.3 |
| 20260510052040 | 68 | 166 | 0.0 | 3.5 | 0.00 | 1.40 | 0.00 | 100 | 1010.3 |
| 20260510051542 | 68 | 161 | 0.0 | 4.3 | 0.00 | 1.40 | 0.00 | 100 | 1010.3 |
| 20260510051040 | 68 | 160 | 0.0 | 7.0 | 0.00 | 1.40 | 0.00 | 100 | 1010.4 |
| 20260510050542 | 68 | 163 | 0.9 | 7.0 | 0.00 | 1.40 | 0.00 | 100 | 1010.4 |
| 20260510050039 | 68 | 147 | 0.0 | 7.0 | 0.00 | 1.40 | 0.00 | 100 | 1010.4 |
| 20260510045538 | 68 | 162 | 2.6 | 7.0 | 0.00 | 1.40 | 1.40 | 100 | 1010.6 |
| 20260510045038 | 68 | 170 | 0.0 | 7.0 | 0.00 | 1.40 | 1.40 | 100 | 1010.6 |
| 20260510044538 | 68 | 153 | 0.9 | 7.0 | 0.00 | 1.40 | 1.40 | 100 | 1010.6 |
| 20260510044037 | 68 | 155 | 0.9 | 6.1 | 0.00 | 1.40 | 1.40 | 100 | 1010.9 |
| 20260510043537 | 68 | 153 | 1.7 | 6.1 | 0.00 | 1.40 | 1.40 | 100 | 1010.9 |
| 20260510043037 | 68 | 168 | 0.0 | 4.3 | 0.00 | 1.40 | 1.40 | 100 | 1010.9 |
| 20260510042536 | 68 | 163 | 0.9 | 4.3 | 0.00 | 1.40 | 1.40 | 100 | 1011.2 |
| 20260510042040 | 68 | 175 | 0.0 | 4.3 | 0.00 | 1.40 | 1.40 | 100 | 1011.2 |
| 20260510041539 | 68 | 142 | 0.0 | 4.3 | 0.00 | 1.40 | 1.40 | 100 | 1011.2 |
| 20260510041036 | 68 | 128 | 0.0 | 1.7 | 0.00 | 1.40 | 1.40 | 100 | 1011.7 |
| 20260510040536 | 68 | 128 | 0.0 | 1.7 | 0.00 | 1.40 | 1.40 | 100 | 1011.7 |
| 20260510040036 | 68 | 128 | 0.0 | 0.0 | 0.00 | 1.40 | 1.40 | 100 | 1011.7 |
| 20260510035536 | 68 | 128 | 0.0 | 0.0 | 0.00 | 1.40 | 1.40 | 100 | 1011.8 |
| 20260510035036 | 68 | 128 | 0.0 | 0.9 | 0.00 | 1.40 | 1.40 | 100 | 1011.8 |
| 20260510034536 | 68 | 128 | 0.0 | 1.7 | 0.00 | 1.40 | 1.40 | 100 | 1011.8 |
| 20260510034036 | 68 | 128 | 0.0 | 1.7 | 0.00 | 1.40 | 1.40 | 100 | 1012.2 |
| 20260510033539 | 68 | 125 | 0.0 | 0.0 | 0.00 | 1.40 | 1.40 | 100 | 1012.2 |
| 20260510033037 | 68 | 125 | 0.0 | 0.0 | 0.00 | 1.40 | 1.40 | 100 | 1012.2 |
| 20260510032535 | 68 | 125 | 0.0 | 0.0 | 0.00 | 1.40 | 1.40 | 100 | 1012.7 |
| 20260510032037 | 68 | 125 | 0.0 | 0.0 | 0.00 | 1.40 | 1.40 | 100 | 1012.7 |
| 20260510031544 | 68 | 125 | 0.0 | 0.0 | 0.00 | 1.40 | 1.40 | 100 | 1012.7 |
| 20260510031035 | 68 | 125 | 0.0 | 0.0 | 0.00 | 1.40 | 1.40 | 100 | 1012.5 |
| 20260510030535 | 68 | 125 | 0.0 | 0.0 | 0.00 | 1.40 | 1.40 | 100 | 1012.5 |
| 20260510030037 | 68 | 125 | 0.0 | 0.0 | 0.00 | 1.40 | 1.40 | 100 | 1012.5 |
| 20260510025534 | 68 | 125 | 0.0 | 0.0 | 0.00 | 1.40 | 1.40 | 100 | 1012.4 |
| 20260510025034 | 68 | 125 | 0.0 | 0.0 | 0.00 | 1.40 | 1.40 | 100 | 1012.4 |
| 20260510024536 | 68 | 125 | 0.0 | 0.0 | 0.00 | 1.40 | 1.40 | 100 | 1012.4 |
| 20260510024033 | 68 | 125 | 0.0 | 0.0 | 0.00 | 1.40 | 1.40 | 100 | 1012.0 |
| 20260510023533 | 68 | 125 | 0.0 | 0.0 | 0.00 | 1.40 | 1.40 | 100 | 1012.0 |
| 20260510023040 | 68 | 125 | 0.0 | 0.0 | 0.00 | 1.40 | 1.40 | 100 | 1012.0 |
| 20260510022536 | 68 | 125 | 0.0 | 0.0 | 0.00 | 1.40 | 1.40 | 100 | 1011.8 |
| 20260510022033 | 68 | 125 | 0.0 | 0.0 | 0.00 | 1.40 | 1.40 | 100 | 1011.8 |
| 20260510021536 | 68 | 125 | 0.0 | 0.0 | 0.00 | 1.40 | 1.40 | 100 | 1011.8 |
| 20260510021033 | 68 | 125 | 0.0 | 0.0 | 0.00 | 1.40 | 1.40 | 100 | 1011.6 |
| 20260510020533 | 68 | 125 | 0.0 | 0.0 | 0.00 | 1.40 | 1.40 | 100 | 1011.6 |
| 20260510020033 | 68 | 125 | 0.0 | 0.0 | 0.00 | 1.40 | 1.40 | 100 | 1011.6 |
| 20260510015536 | 68 | 125 | 0.0 | 0.0 | 0.00 | 1.40 | 1.40 | 100 | 1011.5 |
| 20260510015034 | 68 | 125 | 0.0 | 0.9 | 0.00 | 1.40 | 1.40 | 100 | 1011.5 |
| 20260510014532 | 68 | 125 | 0.0 | 0.0 | 0.00 | 1.40 | 1.40 | 100 | 1011.5 |
| 20260510014032 | 68 | 125 | 0.0 | 0.0 | 0.00 | 1.40 | 1.40 | 100 | 1011.3 |
| 20260510013533 | 68 | 125 | 0.0 | 0.0 | 0.00 | 1.40 | 1.40 | 100 | 1011.3 |
| 20260510013031 | 68 | 125 | 0.0 | 0.9 | 0.00 | 1.40 | 1.40 | 100 | 1011.3 |
| 20260510012531 | 68 | 125 | 0.0 | 1.7 | 0.00 | 1.40 | 1.40 | 100 | 1010.9 |
| 20260510012031 | 68 | 125 | 0.0 | 4.3 | 0.00 | 1.40 | 1.40 | 100 | 1010.9 |
| 20260510011532 | 68 | 125 | 0.9 | 4.3 | 0.00 | 1.40 | 1.40 | 100 | 1010.9 |
| 20260510011032 | 68 | 129 | 0.0 | 4.3 | 0.00 | 1.40 | 1.40 | 100 | 1010.7 |
| 20260510010532 | 68 | 128 | 2.6 | 4.3 | 0.00 | 1.40 | 1.40 | 100 | 1010.7 |
| 20260510010031 | 68 | 130 | 0.9 | 6.1 | 0.00 | 1.40 | 1.40 | 100 | 1010.7 |
| 20260510005531 | 69 | 125 | 0.9 | 6.1 | 0.00 | 1.40 | 1.40 | 100 | 1010.6 |
| 20260510005030 | 69 | 126 | 2.6 | 6.1 | 0.00 | 1.40 | 1.40 | 100 | 1010.6 |
| 20260510004531 | 69 | 132 | 2.6 | 7.8 | 0.00 | 1.40 | 1.40 | 100 | 1010.6 |
| 20260510004030 | 69 | 127 | 3.5 | 7.8 | 0.00 | 1.40 | 1.40 | 100 | 1010.6 |
| 20260510003530 | 69 | 137 | 2.6 | 7.8 | 0.00 | 1.40 | 1.40 | 100 | 1010.6 |
| 20260510003031 | 69 | 139 | 3.5 | 8.7 | 0.00 | 1.40 | 1.40 | 100 | 1010.6 |
| 20260510002529 | 69 | 133 | 0.9 | 8.7 | 0.00 | 1.40 | 1.40 | 100 | 1010.6 |
| 20260510002029 | 69 | 128 | 1.7 | 7.0 | 0.00 | 1.40 | 1.40 | 100 | 1010.6 |
| 20260510001530 | 69 | 140 | 3.5 | 7.0 | 0.00 | 1.40 | 1.40 | 100 | 1010.6 |
| 20260510001030 | 69 | 143 | 2.6 | 6.1 | 0.00 | 1.40 | 1.40 | 100 | 1010.6 |
| 20260510000531 | 69 | 141 | 3.5 | 6.1 | 0.00 | 1.40 | 1.40 | 100 | 1010.6 |
| 20260510000029 | 69 | 137 | 0.0 | 6.1 | 0.00 | 1.40 | 1.40 | 100 | 1010.6 |
| 20260509235529 | 69 | 142 | 0.9 | 6.1 | 0.00 | 1.40 | 1.40 | 100 | 1010.6 |
| 20260509235029 | 69 | 126 | 1.7 | 6.1 | 0.00 | 1.40 | 1.40 | 100 | 1010.6 |
| 20260509234536 | 68 | 112 | 0.0 | 3.5 | 0.00 | 1.40 | 1.40 | 100 | 1010.6 |
| 20260509234029 | 69 | 112 | 0.0 | 3.5 | 0.00 | 1.40 | 1.40 | 100 | 1010.7 |
| 20260509233529 | 69 | 111 | 0.9 | 3.5 | 0.00 | 1.40 | 1.40 | 100 | 1010.7 |
| 20260509233028 | 69 | 111 | 0.0 | 3.5 | 0.00 | 1.40 | 1.40 | 100 | 1010.7 |
| 20260509232528 | 69 | 111 | 0.0 | 0.0 | 0.00 | 1.40 | 1.40 | 100 | 1010.7 |
| 20260509232028 | 69 | 111 | 0.0 | 0.0 | 0.00 | 1.40 | 1.40 | 100 | 1010.7 |
| 20260509231528 | 69 | 111 | 0.0 | 0.9 | 0.00 | 1.40 | 1.40 | 100 | 1010.7 |
| 20260509231028 | 69 | 111 | 0.0 | 0.9 | 0.00 | 1.40 | 1.40 | 100 | 1010.7 |
| 20260509230528 | 69 | 109 | 0.0 | 0.9 | 0.00 | 1.40 | 1.40 | 100 | 1010.7 |
| 20260509230028 | 69 | 109 | 0.0 | 0.9 | 0.00 | 1.40 | 1.40 | 100 | 1010.7 |
| 20260509225527 | 69 | 109 | 0.0 | 0.0 | 0.00 | 1.40 | 1.40 | 100 | 1010.5 |
| 20260509225028 | 69 | 109 | 0.0 | 0.9 | 0.00 | 1.40 | 1.40 | 100 | 1010.5 |
| 20260509224527 | 69 | 109 | 0.0 | 0.9 | 0.01 | 1.40 | 1.40 | 100 | 1010.5 |
| 20260509224027 | 69 | 109 | 0.0 | 0.0 | 0.01 | 1.40 | 1.40 | 100 | 1010.6 |
| 20260509223527 | 69 | 109 | 0.0 | 0.9 | 0.01 | 1.40 | 1.40 | 100 | 1010.6 |
| 20260509223026 | 68 | 109 | 0.0 | 0.9 | 0.01 | 1.40 | 1.40 | 100 | 1010.6 |
| 20260509222526 | 69 | 109 | 0.0 | 0.9 | 0.02 | 1.40 | 1.40 | 100 | 1010.6 |
| 20260509222026 | 69 | 109 | 0.0 | 0.0 | 0.02 | 1.40 | 1.40 | 100 | 1010.6 |
| 20260509221526 | 68 | 109 | 0.0 | 0.0 | 0.02 | 1.40 | 1.40 | 100 | 1010.6 |
| 20260509221027 | 68 | 109 | 0.0 | 0.9 | 0.02 | 1.40 | 1.40 | 100 | 1010.4 |
| 20260509220526 | 68 | 109 | 0.0 | 1.7 | 0.03 | 1.40 | 1.40 | 100 | 1010.4 |
| 20260509220029 | 68 | 109 | 0.0 | 0.9 | 0.03 | 1.40 | 1.40 | 100 | 1010.4 |
| 20260509215526 | 68 | 109 | 0.0 | 0.9 | 0.03 | 1.41 | 1.40 | 100 | 1010.3 |
| 20260509215026 | 68 | 109 | 0.0 | 0.9 | 0.03 | 1.41 | 1.40 | 100 | 1010.3 |
| 20260509214526 | 68 | 109 | 0.0 | 2.6 | 0.02 | 1.40 | 1.39 | 100 | 1010.3 |
| 20260509214028 | 68 | 109 | 0.0 | 3.5 | 0.02 | 1.40 | 1.39 | 100 | 1010.5 |
| 20260509213525 | 68 | 109 | 0.0 | 3.5 | 0.02 | 1.40 | 1.39 | 100 | 1010.5 |
| 20260509213025 | 68 | 115 | 0.0 | 2.6 | 0.02 | 1.40 | 1.39 | 100 | 1010.5 |
| 20260509212524 | 68 | 115 | 0.0 | 2.6 | 0.01 | 1.39 | 1.38 | 100 | 1010.6 |
| 20260509212030 | 68 | 115 | 0.9 | 2.6 | 0.01 | 1.39 | 1.38 | 100 | 1010.6 |
| 20260509211525 | 68 | 115 | 0.0 | 3.5 | 0.01 | 1.39 | 1.38 | 100 | 1010.6 |
| 20260509211028 | 68 | 115 | 0.9 | 3.5 | 0.01 | 1.39 | 1.38 | 100 | 1010.5 |
| 20260509210525 | 68 | 115 | 0.9 | 4.3 | 0.00 | 1.38 | 1.37 | 100 | 1010.5 |
| 20260509210028 | 68 | 117 | 0.9 | 4.3 | 0.00 | 1.38 | 1.37 | 100 | 1010.5 |
| 20260509205525 | 68 | 117 | 2.6 | 4.3 | 0.00 | 1.59 | 1.37 | 100 | 1010.1 |
| 20260509205024 | 68 | 119 | 1.7 | 4.3 | 0.00 | 1.59 | 1.37 | 100 | 1010.1 |
| 20260509204524 | 68 | 121 | 0.9 | 6.1 | 0.00 | 1.59 | 1.37 | 100 | 1010.1 |
| 20260509204024 | 68 | 123 | 1.7 | 8.7 | 0.00 | 1.59 | 1.37 | 100 | 1009.7 |
| 20260509203523 | 68 | 119 | 3.5 | 8.7 | 0.00 | 1.59 | 1.37 | 100 | 1009.7 |
| 20260509203025 | 68 | 111 | 3.5 | 8.7 | 0.00 | 1.59 | 1.37 | 100 | 1009.7 |
| 20260509202523 | 68 | 128 | 3.5 | 10.4 | 0.00 | 1.59 | 1.37 | 100 | 1010.1 |
| 20260509202023 | 68 | 102 | 6.1 | 10.4 | 0.00 | 1.59 | 1.37 | 100 | 1010.1 |
| 20260509201523 | 68 | 100 | 6.1 | 9.6 | 0.00 | 1.59 | 1.37 | 100 | 1010.1 |
| 20260509201022 | 68 | 132 | 5.2 | 9.6 | 0.00 | 1.59 | 1.37 | 100 | 1010.5 |
| 20260509200522 | 68 | 107 | 3.5 | 9.6 | 0.00 | 1.59 | 1.37 | 100 | 1010.5 |
| 20260509200022 | 68 | 103 | 5.2 | 8.7 | 0.00 | 1.59 | 1.37 | 100 | 1010.5 |
| 20260509195527 | 68 | 72 | 4.3 | 7.8 | 0.00 | 1.88 | 1.37 | 100 | 1010.7 |
| 20260509195022 | 68 | 108 | 4.3 | 13.0 | 0.02 | 1.88 | 1.37 | 100 | 1010.7 |
| 20260509194525 | 68 | 103 | 5.2 | 13.0 | 0.02 | 1.88 | 1.37 | 100 | 1010.7 |
| 20260509194022 | 68 | 122 | 6.1 | 9.6 | 0.02 | 1.88 | 1.37 | 100 | 1011.1 |
| 20260509193522 | 68 | 102 | 3.5 | 8.7 | 0.02 | 1.88 | 1.37 | 100 | 1011.1 |
| 20260509193022 | 68 | 121 | 2.6 | 7.8 | 0.03 | 1.88 | 1.37 | 100 | 1011.1 |